Location: Newark
(34.6283°N, 36.0776°E)
Time: 07:53:37
(UTC+00:00)

Tiros 1 despin weight - Pass Details

Date: 29 September 2019
Orbit: 593 x 643 km, 48.2° (Epoch: 22 October)

Event Time Altitude Azimuth Distance (km) Brightness Sun altitude
Rises 13:13:04 0° 302° (WNW) 2,859 ? 25.3°
Reaches altitude 10° 13:15:26 10° 297° (WNW) 1,945 ? 24.8°
Maximum altitude 13:19:43 48° 223° (SW) 781 ? 24.0°
Drops below altitude 10° 13:23:57 10° 149° (SSE) 1,917 ? 23.2°
Sets 13:26:16 0° 143° (SE) 2,812 ? 22.7°
